Orbital Elements at Epoch 2459200.5 (2020-Dec-17.0) TDB
Reference: JPL 18 (heliocentric ecliptic J2000)
Element | Value | Uncertainty (1-sigma) | Units |
e | .1348475452767786 | 3.5741e-08 | |
a | 2.213100309898772 | 7.9923e-09 | au |
q | 1.914669165657645 | 7.9445e-08 | au |
i | 5.721316670806914 | 4.598e-06 | deg |
node | 305.8851000651339 | 4.1942e-05 | deg |
peri | 97.28839255665878 | 4.683e-05 | deg |
M | 66.44298766940004 | 2.1247e-05 | deg |
tp | 2458978.554304149233 (2020-May-09.05430415) | 7.0312e-05 | TDB |
period | 1202.541506770231 3.29 | 6.5142e-06 1.783e-08 | d yr |
n | .2993659661418946 | 1.6217e-09 | deg/d |
Q | 2.5115314541399 | 9.07e-09 | au |
|
| | Orbit Determination Parameters
Additional Information
|